This demonstration page uses our WeatherBlox Daily Observations layout. Learn more.

Left ArrowRight Arrow

Hourly Observations for March 6, 2015

Temp ( °F °C ) Dew Point ( °F °C ) Humidity (%) Winds ( mph kmh ) Pressure ( in mb ) Visibility ( mi km ) Precip ( " mm )
12:53 am 00:53 Clear 41 5 34 1.1 76 76 NNE 3 6 30.31 1026 10 16 0.00 0.00
1:53 am 01:53 Clear 40 4.4 34 1.1 79 79 Calm 30.30 1026 10 16 0.00 0.00
2:53 am 02:53 Clear 39 3.9 33 0.6 79 79 NW 5 7 30.29 1026 10 16 0.00 0.00
3:53 am 03:53 Clear 38 3.3 33 0.6 83 83 Calm 30.29 1026 10 16 0.00 0.00
4:53 am 04:53 Clear 37 2.8 33 0.6 86 86 Calm 30.28 1026 10 16 0.00 0.00
5:53 am 05:53 Clear 36 2.2 32 0 86 86 Calm 30.29 1026 10 16 0.00 0.00
6:53 am 06:53 Sunny 37 2.8 32 0 82 82 Calm 30.30 1026 10 16 0.00 0.00
7:53 am 07:53 Sunny 42 5.6 35 1.7 76 76 Calm 30.30 1026 10 16 0.00 0.00
8:53 am 08:53 Sunny 49 9.4 37 2.8 64 64 Calm 30.30 1026 10 16 0.00 0.00
9:53 am 09:53 Sunny 58 14.4 40 4.4 51 51 Calm 30.28 1025 10 16 0.00 0.00
10:53 am 10:53 Sunny 66 19 41 5 40 40 Calm 30.24 1024 10 16 0.00 0.00
11:53 am 11:53 Sunny 72 22.2 39 3.9 30 30 S 5 7 30.23 1024 10 16 0.00 0.00
12:53 pm 12:53 Sunny 78 25.6 35 1.7 21 21 Calm 30.19 1023 10 16 0.00 0.00
1:53 pm 13:53 Sunny 80 26.7 30 -1.1 16 16 NNW 7 11 30.16 1021 10 16 0.00 0.00
2:53 pm 14:53 Sunny 82 27.8 33 0.6 17 17 NE 5 7 30.13 1020 10 16 0.00 0.00
3:53 pm 15:53 Sunny 83 28.3 27 -2.8 13 13 VRB 5 7 30.12 1020 10 16 0.00 0.00
4:53 pm 16:53 Sunny 82 27.8 26 -3.3 13 13 NNW 3 6 30.10 1019 10 16 0.00 0.00
5:53 pm 17:53 Sunny 75 23.9 28 -2.2 18 18 NW 5 7 30.09 1019 10 16 0.00 0.00
6:53 pm 18:53 Clear 66 18.9 28 -2.2 24 24 WNW 5 7 30.10 1019 10 16 0.00 0.00
7:53 pm 19:53 Clear 62 16.7 36 2.2 38 38 N 3 6 30.11 1020 10 16 0.00 0.00
8:53 pm 20:53 Clear 57 13.9 37 2.8 47 47 N 5 7 30.12 1020 10 16 0.00 0.00
9:53 pm 21:53 Clear 53 11.7 38 3.3 57 57 Calm 30.14 1021 10 16 0.00 0.00
10:53 pm 22:53 Clear 50 10 38 3.3 63 63 NNW 3 6 30.14 1021 10 16 0.00 0.00
11:53 pm 23:53 Clear 47 8.3 37 2.8 69 69 Calm 30.13 1020 10 16 0.00 0.00

Powered by AerisWeather